Weather in Bushtyna

Ukraine / Zakarpattia District     48°03′13″N   23°28′36″E
temp.,
°C
wind,
m/s
gust,
m/s
humid.,
%
clouds,
%
prec.,
mm/h
press.,
hPa
HPBL,
m
10 may, mon
mon1000:00+7ese22785 0.0 102416
03:00+6e32795 0.0 102328
06:00+5e22805 0.0 102324
09:00+12ene23685 0.0 1022233
12:00+18n02544 0.0 1021789
15:00+20wnw12525 0.0 10191067
18:00+20wnw21595 0.0 1018716
21:00+13n01825 0.0 101911
11 may, tue
tue1100:00+12e22860 0.0 101912
03:00+10e22900 0.0 101818
06:00+9e22880 0.0 101819
09:00+15ene22725 0.0 1017198
12:00+21w11550 0.0 1016777
15:00+22wnw22540 0.0 10141113
18:00+22wnw11590 0.0 1012850
21:00+16e01810 0.0 101211
12 may, wed
wed1200:00+14ese22860 0.0 101215
03:00+12e22866 0.0 101128
06:00+11e22856 0.0 101025
09:00+16e23700 0.0 1009292
12:00+20se126110 0.4 1007832
15:00+22sw225519 1.6 10051425
18:00+19wnw2377100 2.4 1005148
21:00+15ese2283100 6.7 100422
13 may, thu
thu1300:00+13se2289100 0.6 100515
03:00+13se1189100 0.8 100415
06:00+12ssw2697100 3.5 1005413
09:00+12sse1397100 8.4 1005243
12:00+12s1393100 2.8 1005221
15:00+12sse1292100 4.3 1005145
18:00+14sse2485100 0.4 1005405
21:00+11se2392100 0.7 100558
14 may, fri
fri1400:00+10se2291100 0.1 100622
03:00+9se2292100 0.1 100714
06:00+10ssw129391 0.4 100830
09:00+11ssw2595100 0.6 1009456
12:00+11sw249474 1.1 1011479
15:00+14w2374100 1.4 1011801
18:00+14w22675 0.0 1011823
21:00+10ese01865 0.0 101210